TimeCST,TemperatureF,Dew PointF,Humidity,Sea Level PressureIn,VisibilityMPH,Wind Direction,Wind SpeedMPH,Gust SpeedMPH,PrecipitationIn,Events,Conditions,WindDirDegrees,DateUTC
12:13 AM,39.2,35.6,87,30.06,10.0,Calm,Calm,-,N/A,,Clear,0,2013-11-03 05:13:00
12:32 AM,39.2,35.6,87,30.05,10.0,Calm,Calm,-,N/A,,Clear,0,2013-11-03 05:32:00
12:53 AM,41.0,35.6,81,30.06,10.0,Calm,Calm,-,N/A,,Clear,0,2013-11-03 05:53:00
1:13 AM,41.0,35.6,81,30.06,10.0,Calm,Calm,-,N/A,,Clear,0,2013-11-03 06:13:00
1:32 AM,39.2,35.6,87,30.06,10.0,Calm,Calm,-,N/A,,Clear,0,2013-11-03 06:32:00
1:53 AM,41.0,35.6,81,30.07,10.0,Calm,Calm,-,N/A,,Clear,0,2013-11-03 06:53:00
1:13 AM,41.0,35.6,81,30.06,10.0,Calm,Calm,-,N/A,,Clear,0,2013-11-03 07:13:00
1:32 AM,41.0,35.6,81,30.06,10.0,SSE,5.8,-,N/A,,Clear,150,2013-11-03 07:32:00
1:53 AM,39.2,35.6,87,30.06,10.0,Calm,Calm,-,N/A,,Clear,0,2013-11-03 07:53:00
2:12 AM,35.6,33.8,93,30.05,10.0,SE,6.9,-,N/A,,Clear,130,2013-11-03 08:12:00
2:33 AM,37.4,35.6,93,30.05,10.0,SE,8.1,-,N/A,,Clear,140,2013-11-03 08:33:00
2:53 AM,39.2,35.6,87,30.04,10.0,SE,6.9,-,N/A,,Clear,140,2013-11-03 08:53:00
3:12 AM,39.2,35.6,87,30.04,10.0,SE,6.9,-,N/A,,Clear,140,2013-11-03 09:12:00
3:33 AM,37.4,35.6,93,30.03,10.0,SE,8.1,-,N/A,,Clear,140,2013-11-03 09:33:00
3:53 AM,37.4,33.8,87,30.03,10.0,SE,6.9,-,N/A,,Clear,140,2013-11-03 09:53:00
4:12 AM,37.4,33.8,87,30.02,10.0,SE,8.1,-,N/A,,Clear,140,2013-11-03 10:12:00
4:33 AM,37.4,33.8,87,30.01,10.0,SE,8.1,-,N/A,,Clear,140,2013-11-03 10:33:00
4:53 AM,37.4,33.8,87,30.01,10.0,SE,8.1,-,N/A,,Clear,140,2013-11-03 10:53:00
5:12 AM,37.4,33.8,87,30.01,10.0,SE,9.2,-,N/A,,Clear,140,2013-11-03 11:12:00
5:33 AM,37.4,33.8,87,30.00,10.0,SE,8.1,-,N/A,,Clear,140,2013-11-03 11:33:00
5:53 AM,37.4,33.8,87,29.99,10.0,SE,6.9,-,N/A,,Clear,130,2013-11-03 11:53:00
6:12 AM,37.4,33.8,87,29.99,10.0,SE,8.1,-,N/A,,Clear,130,2013-11-03 12:12:00
6:33 AM,37.4,33.8,87,29.99,10.0,SE,8.1,-,N/A,,Clear,130,2013-11-03 12:33:00
6:53 AM,35.6,33.8,93,29.99,10.0,SE,8.1,-,N/A,,Clear,140,2013-11-03 12:53:00
7:12 AM,37.4,33.8,87,29.99,10.0,SE,9.2,-,N/A,,Clear,140,2013-11-03 13:12:00
7:33 AM,37.4,33.8,87,29.99,10.0,SE,9.2,-,N/A,,Clear,140,2013-11-03 13:33:00
7:53 AM,39.2,35.6,87,29.99,10.0,SE,10.4,-,N/A,,Clear,140,2013-11-03 13:53:00
8:12 AM,41.0,35.6,81,29.98,10.0,SE,11.5,17.3,N/A,,Clear,140,2013-11-03 14:12:00
8:33 AM,42.8,35.6,76,29.98,10.0,SSE,12.7,19.6,N/A,,Clear,150,2013-11-03 14:33:00
8:53 AM,42.8,35.6,76,29.99,10.0,SE,10.4,-,N/A,,Clear,140,2013-11-03 14:53:00
9:12 AM,44.6,35.6,71,29.98,10.0,SSE,11.5,20.7,N/A,,Clear,150,2013-11-03 15:12:00
9:33 AM,44.6,35.6,71,29.97,10.0,SE,16.1,24.2,N/A,,Clear,140,2013-11-03 15:33:00
9:53 AM,44.6,35.6,71,29.97,10.0,SE,13.8,17.3,N/A,,Clear,140,2013-11-03 15:53:00
10:12 AM,46.4,35.6,66,29.96,10.0,SE,16.1,21.9,N/A,,Clear,140,2013-11-03 16:12:00
10:33 AM,48.2,35.6,62,29.95,10.0,SSE,13.8,23.0,N/A,,Clear,150,2013-11-03 16:33:00
10:53 AM,51.8,35.6,54,29.94,10.0,SSE,15.0,26.5,N/A,,Clear,150,2013-11-03 16:53:00
11:12 AM,51.8,35.6,54,29.93,10.0,SE,20.7,32.2,N/A,,Clear,140,2013-11-03 17:12:00
11:33 AM,53.6,35.6,51,29.91,10.0,SE,16.1,27.6,N/A,,Clear,140,2013-11-03 17:33:00
11:52 AM,53.6,33.8,47,29.90,10.0,SSE,17.3,31.1,N/A,,Clear,150,2013-11-03 17:52:00
12:13 PM,53.6,33.8,47,29.88,10.0,SE,20.7,33.4,N/A,,Clear,140,2013-11-03 18:13:00
12:33 PM,53.6,33.8,47,29.87,10.0,SE,20.7,34.5,N/A,,Clear,140,2013-11-03 18:33:00
12:52 PM,55.4,32.0,41,29.86,10.0,SE,20.7,34.5,N/A,,Clear,140,2013-11-03 18:52:00
1:13 PM,53.6,30.2,41,29.84,10.0,SE,23.0,34.5,N/A,,Clear,140,2013-11-03 19:13:00
1:33 PM,55.4,32.0,41,29.84,10.0,SE,21.9,34.5,N/A,,Clear,140,2013-11-03 19:33:00
1:52 PM,55.4,28.4,36,29.84,10.0,SSE,21.9,35.7,N/A,,Clear,150,2013-11-03 19:52:00
2:13 PM,55.4,30.2,38,29.83,10.0,SSE,16.1,29.9,N/A,,Clear,150,2013-11-03 20:13:00
2:33 PM,55.4,30.2,38,29.83,10.0,SSE,17.3,28.8,N/A,,Clear,150,2013-11-03 20:33:00
2:52 PM,55.4,28.4,36,29.84,10.0,SSE,21.9,32.2,N/A,,Clear,150,2013-11-03 20:52:00
3:13 PM,53.6,30.2,41,29.83,10.0,SSE,18.4,32.2,N/A,,Clear,150,2013-11-03 21:13:00
3:32 PM,53.6,30.2,41,29.84,10.0,SE,13.8,29.9,N/A,,Clear,140,2013-11-03 21:32:00
3:53 PM,53.6,30.2,41,29.83,10.0,SE,18.4,25.3,N/A,,Clear,140,2013-11-03 21:53:00
4:13 PM,53.6,30.2,41,29.82,10.0,SE,16.1,26.5,N/A,,Clear,140,2013-11-03 22:13:00
4:33 PM,51.8,30.2,44,29.82,10.0,SE,16.1,21.9,N/A,,Clear,140,2013-11-03 22:33:00
4:52 PM,51.8,30.2,44,29.83,10.0,SSE,13.8,24.2,N/A,,Clear,150,2013-11-03 22:52:00
5:13 PM,51.8,32.0,47,29.83,10.0,SSE,12.7,21.9,N/A,,Clear,150,2013-11-03 23:13:00
5:33 PM,51.8,32.0,47,29.83,10.0,SE,15.0,24.2,N/A,,Clear,140,2013-11-03 23:33:00
5:53 PM,51.8,32.0,47,29.83,10.0,SE,12.7,24.2,N/A,,Clear,140,2013-11-03 23:53:00
6:13 PM,51.8,32.0,47,29.83,10.0,SE,15.0,20.7,N/A,,Clear,140,2013-11-04 00:13:00
6:32 PM,50.0,32.0,50,29.83,10.0,SE,13.8,21.9,N/A,,Clear,140,2013-11-04 00:32:00
6:53 PM,48.2,32.0,54,29.83,10.0,SE,12.7,21.9,N/A,,Clear,140,2013-11-04 00:53:00
7:13 PM,48.2,33.8,58,29.83,10.0,SE,13.8,20.7,N/A,,Clear,140,2013-11-04 01:13:00
7:32 PM,48.2,33.8,58,29.83,10.0,SE,12.7,18.4,N/A,,Clear,140,2013-11-04 01:32:00
7:53 PM,48.2,33.8,58,29.84,10.0,SE,13.8,20.7,N/A,,Clear,140,2013-11-04 01:53:00
8:12 PM,48.2,33.8,58,29.83,10.0,SE,11.5,18.4,N/A,,Clear,140,2013-11-04 02:12:00
8:33 PM,48.2,33.8,58,29.83,10.0,SE,13.8,18.4,N/A,,Clear,140,2013-11-04 02:33:00
8:53 PM,48.2,33.8,58,29.83,10.0,SSE,11.5,21.9,N/A,,Clear,150,2013-11-04 02:53:00
9:12 PM,48.2,33.8,58,29.83,10.0,SSE,16.1,24.2,N/A,,Mostly Cloudy,150,2013-11-04 03:12:00
9:33 PM,48.2,33.8,58,29.83,10.0,SSE,13.8,21.9,N/A,,Overcast,150,2013-11-04 03:33:00
9:53 PM,48.2,33.8,58,29.83,10.0,SSE,12.7,20.7,N/A,,Overcast,150,2013-11-04 03:53:00
10:12 PM,48.2,33.8,58,29.83,10.0,SSE,13.8,25.3,N/A,,Overcast,150,2013-11-04 04:12:00
10:33 PM,48.2,33.8,58,29.82,10.0,SSE,12.7,25.3,N/A,,Overcast,150,2013-11-04 04:33:00
10:52 PM,48.2,33.8,58,29.82,10.0,SSE,10.4,21.9,N/A,,Overcast,150,2013-11-04 04:52:00